Wind_Speed
77 72 70 69 66 66 66 66 65 66 67 64 62 62 61 66 71 71 72 75 75 77 78 79 76 75 74 73 69 72 71 69 69 66 63 66 72 75 70 74 71 70 69
76 73 70 69 69 70 69 70 69 70 71 66 67 68 71 73 73 74 73 75 77 77 81 74 75 71 70 73 75 74 71 65 62 63 71 74 80 71 76 76 73 69 73
72 71 71 72 72 72 69 72 73 72 71 70 68 69 72 73 75 75 75 76 79 76 72 74 76 71 71 70 66 59 56 57 63 67 76 77 78 75 78 77 73 76 78
72 70 67 68 73 72 71 72 73 75 72 72 71 73 73 75 74 71 74 71 70 70 74 73 69 66 63 53 54 55 59 68 74 75 77 70 72 81 79 77 75 80 82
66 66 64 63 66 70 69 71 74 74 71 69 72 75 76 73 70 69 68 67 68 73 69 64 58 63 60 51 57 57 70 77 77 80 71 76 85 82 79 76 80 86 85
60 58 55 58 60 58 67 67 67 74 74 72 71 70 69 69 70 65 67 70 69 65 55 56 60 57 57 62 58 64 79 80 77 70 78 82 82 80 81 84 88 91 89
55 51 50 50 54 60 60 64 61 61 67 70 71 69 68 69 59 61 63 64 61 53 54 61 62 62 64 64 74 77 76 71 76 81 80 81 77 82 86 87 91 87 83
44 44 40 49 58 57 57 53 64 68 64 65 65 58 61 59 63 66 62 61 53 53 59 61 57 63 71 79 80 75 74 78 85 81 80 84 84 87 86 88 84 73 64
30 25 35 50 55 59 58 65 64 52 57 62 54 57 57 59 62 62 56 57 53 58 62 67 65 81 80 80 77 78 72 77 81 83 83 88 90 83 84 83 75 60 56
30 34 33 46 51 45 55 50 48 49 53 52 51 52 54 55 62 56 56 53 60 66 66 67 75 80 80 74 79 89 89 84 91 88 87 91 87 85 79 72 62 53 38
37 36 46 45 50 53 49 48 50 52 47 49 52 49 55 66 65 59 56 61 60 62 73 71 70 74 86 85 91 90 92 92 89 90 90 92 81 71 65 62 58 59 49
44 45 48 54 51 50 44 44 44 49 51 54 56 55 57 55 57 58 57 58 59 69 81 87 86 86 84 92 94 93 93 97 92 89 88 80 78 65 62 54 53 56 53
37 45 48 53 57 53 52 49 53 55 60 61 62 57 54 57 60 60 68 80 79 86 84 84 86 93 94 96 96 96 94 97 96 92 91 85 81 69 63 65 60 59 64
51 51 64 57 54 56 57 57 61 62 67 58 49 62 60 65 75 77 76 74 79 86 93 96 93 96 92 93 94 92 94 94 92 84 81 76 73 70 67 68 72 71 72
54 59 69 60 54 62 57 59 62 61 58 68 73 71 74 71 76 77 82 89 89 92 95 95 98 96 100 97 95 95 92 87 85 78 77 77 77 77 76 75 75 77 80
52 55 60 56 53 58 55 56 58 62 64 64 66 71 68 78 81 83 89 92 95 98 99 93 89 87 87 89 90 84 82 83 83 84 84 83 81 80 79 79 79 78 78
46 56 46 50 55 59 66 64 66 68 67 73 74 75 78 82 82 82 83 88 93 91 87 90 94 92 88 92 86 84 85 85 85 84 83 82 80 78 76 76 74 73 73
55 56 52 55 58 62 65 68 71 67 72 76 77 81 82 87 89 93 82 84 84 87 92 91 89 83 82 82 81 80 81 80 80 82 83 80 78 77 75 72 71 70 72
63 69 64 61 64 71 67 69 66 65 68 71 67 78 77 78 79 82 86 83 85 82 75 73 75 73 70 70 71 75 79 80 80 81 80 79 77 76 75 74 74 75 76
50 52 58 64 68 63 71 73 75 73 72 74 77 77 82 88 87 86 82 82 80 69 64 67 66 69 71 73 75 79 79 80 79 78 78 77 75 75 75 76 78 81 83
53 55 47 48 48 54 60 64 66 69 72 73 79 79 81 80 81 78 79 72 66 63 62 64 66 70 73 76 82 83 79 78 78 77 76 77 81 84 86 87 89 92 94
50 47 49 53 57 55 57 60 65 69 69 71 73 77 80 80 78 75 68 63 62 61 65 69 72 73 78 82 87 84 77 76 75 79 83 87 91 95 97 100 103 105 106
47 48 52 54 56 62 63 64 65 68 70 68 75 76 76 71 65 61 58 61 63 66 71 74 76 77 81 86 88 83 76 76 79 84 89 94 98 105 108 108 108 108 107
40 37 41 47 49 55 55 54 56 61 61 63 66 65 62 61 59 61 61 63 66 71 76 80 81 83 86 89 91 86 84 84 86 87 94 99 102 104 105 105 106 107 108
43 47 50 50 51 49 55 58 60 60 61 60 60 59 60 63 62 62 65 67 72 77 81 83 85 89 92 95 97 91 89 90 94 97 99 104 104 101 101 102 104 106 110
43 44 45 45 50 53 55 55 52 52 55 56 58 60 63 65 65 68 71 74 76 81 85 87 89 92 95 99 95 91 91 94 100 105 107 104 102 102 102 105 109 110 110
Wind_Direction
261 263 266 268 269 270 274 275 274 272 276 275 282 275 275 280 282 280 279 278 280 282 285 285 285 285 286 287 289 290 288 292 293 291 291 293 297 301 301 305 301 299 297
262 263 264 268 270 273 274 276 276 276 280 278 278 278 276 280 280 279 279 279 281 281 284 285 285 287 287 287 288 289 285 291 290 289 293 291 297 298 300 299 296 292 292
261 263 265 267 270 270 272 275 277 277 278 275 275 276 275 277 279 279 279 282 282 284 285 286 288 291 287 290 290 292 290 289 288 291 296 300 299 297 297 298 291 294 296
266 267 266 264 265 268 273 273 275 277 278 278 277 274 276 278 279 281 283 281 285 285 285 286 290 286 292 291 289 290 291 296 297 298 303 297 297 294 293 293 293 299 300
270 269 270 270 270 267 268 269 269 271 273 273 273 274 276 278 281 283 282 282 279 284 285 284 286 292 289 293 304 294 294 296 300 304 297 298 300 293 290 294 295 300 301
271 271 272 269 266 268 270 267 268 270 271 270 272 275 278 280 284 282 282 280 284 287 281 285 289 290 297 296 292 288 300 297 297 293 293 296 292 292 300 301 300 304 302
266 264 264 264 258 259 262 266 269 270 270 273 273 276 279 279 279 281 282 280 282 283 285 286 289 291 293 289 294 298 299 292 292 291 290 294 298 299 304 302 302 302 301
256 255 255 259 260 260 263 263 274 279 277 276 278 275 277 277 279 284 279 279 275 282 287 295 292 288 293 299 297 294 294 291 288 291 295 299 301 301 303 303 300 295 291
241 244 244 264 268 269 267 274 275 281 276 274 271 274 279 276 286 279 275 277 279 287 287 289 286 293 294 295 290 289 293 293 295 296 299 301 304 303 300 298 293 286 278
226 260 262 266 275 270 273 273 270 275 271 269 272 278 283 283 290 274 274 289 291 289 286 284 290 293 289 291 293 298 294 295 298 300 301 302 302 300 296 291 284 278 275
212 236 247 249 258 262 257 263 274 270 276 276 281 278 277 286 286 279 286 287 290 281 282 285 286 290 295 296 293 300 298 298 302 302 302 300 298 294 292 285 282 273 276
219 224 237 247 242 250 261 265 262 271 275 281 285 280 283 286 285 285 287 279 278 285 290 290 293 292 296 297 301 300 300 300 302 301 299 298 295 289 286 283 281 279 278
200 224 226 233 236 243 259 258 262 270 280 279 274 276 280 279 282 281 281 284 282 286 289 293 294 296 296 300 300 300 300 300 300 300 297 295 295 290 283 281 278 285 286
204 207 229 230 243 248 257 260 263 265 269 266 275 275 278 273 274 273 281 288 287 287 289 291 297 299 300 301 302 302 301 301 302 300 297 296 295 291 290 289 287 286 286
210 222 226 231 242 256 259 263 264 268 266 275 268 268 272 276 283 282 279 283 287 289 295 298 298 299 301 300 302 301 300 300 299 299 297 294 292 290 289 287 284 283 282
219 230 229 232 244 246 254 251 254 252 258 265 264 266 276 284 287 290 286 284 289 291 293 300 301 298 301 300 303 300 299 298 298 296 294 293 292 291 290 287 284 281 278
220 215 229 228 231 239 244 246 255 256 258 263 266 270 275 282 284 289 289 287 289 294 295 296 297 298 296 298 297 297 298 298 298 297 296 297 297 296 294 292 290 288 285
214 214 226 230 237 243 250 256 253 254 262 267 273 274 278 281 285 287 291 291 295 294 296 295 296 298 297 298 300 301 299 297 296 295 295 295 295 294 293 291 289 286 284
217 219 225 235 242 244 257 255 258 267 269 271 277 275 287 286 289 291 291 292 294 296 295 296 298 300 302 303 304 304 301 299 297 297 298 296 294 293 291 289 286 282 279
223 229 234 243 247 257 259 261 263 272 271 275 276 281 287 288 290 290 291 291 295 295 295 298 300 301 303 304 305 307 305 301 300 299 298 297 295 291 289 287 285 282 280
238 230 239 254 258 260 261 260 264 270 273 281 281 287 284 285 289 290 292 291 290 291 295 299 300 302 306 308 311 309 306 302 302 302 299 298 295 293 291 289 286 284 282
241 243 246 253 260 262 267 268 271 269 272 279 280 277 282 286 288 290 289 289 291 294 296 299 302 305 308 309 311 309 305 304 303 302 301 300 298 295 294 293 291 290 286
255 259 258 259 264 267 268 269 272 275 278 280 277 279 282 285 285 286 287 290 292 294 298 303 305 306 309 310 310 306 302 301 301 302 302 301 301 299 297 295 293 290 288
260 261 261 266 269 265 270 275 277 280 282 283 284 284 285 285 285 286 287 288 291 296 301 305 307 307 308 310 311 307 302 300 300 300 302 301 299 296 293 292 292 291 290
271 274 276 276 275 275 278 282 282 281 283 283 286 285 285 286 286 286 286 290 295 299 305 306 305 307 308 308 309 305 301 300 300 301 301 299 300 297 295 294 292 291 289
270 272 274 273 273 275 275 276 280 282 283 284 282 285 286 286 287 290 292 296 301 303 305 305 306 307 307 307 306 303 302 301 301 302 302 302 301 300 298 297 295 294 292
Height
10846 10852 10857 10859 10861 10861 10861 10860 10860 10859 10859 10860 10859 10857 10855 10854 10852 10850 10848 10845 10843 10840 10838 10835 10834 10832 10832 10830 10823 10818 10814 10812 10808 10804 10800 10799 10795 10791 10786 10782 10778 10773 10770
10839 10843 10846 10848 10850 10850 10851 10848 10847 10846 10847 10849 10849 10847 10845 10842 10839 10836 10834 10831 10829 10826 10825 10822 10820 10818 10820 10818 10810 10808 10805 10801 10798 10795 10791 10788 10783 10777 10774 10770 10765 10761 10757
10831 10835 10839 10840 10839 10838 10840 10837 10834 10834 10836 10837 10837 10834 10832 10830 10826 10824 10822 10819 10816 10813 10811 10810 10809 10806 10807 10807 10802 10796 10793 10788 10786 10784 10778 10775 10770 10765 10761 10756 10753 10749 10744
10822 10825 10828 10829 10828 10827 10828 10828 10825 10821 10823 10824 10824 10821 10820 10818 10815 10813 10809 10805 10803 10800 10798 10797 10796 10792 10793 10795 10794 10788 10779 10775 10771 10772 10768 10762 10759 10754 10749 10744 10740 10736 10731
10812 10814 10817 10819 10819 10818 10817 10817 10815 10812 10813 10813 10811 10807 10807 10806 10804 10801 10796 10793 10791 10788 10787 10786 10784 10782 10778 10784 10781 10777 10772 10765 10760 10757 10753 10751 10744 10740 10735 10730 10726 10723 10718
10800 10803 10806 10805 10805 10807 10806 10803 10801 10799 10802 10801 10799 10799 10796 10794 10792 10787 10784 10780 10779 10778 10777 10776 10774 10771 10766 10769 10770 10765 10758 10753 10751 10747 10743 10736 10730 10724 10721 10716 10712 10708 10703
10786 10789 10790 10788 10788 10789 10793 10792 10791 10790 10790 10789 10790 10788 10785 10785 10781 10776 10773 10769 10769 10768 10767 10765 10762 10759 10756 10757 10756 10754 10747 10741 10737 10733 10730 10724 10717 10713 10707 10701 10697 10693 10687
10771 10774 10776 10775 10774 10782 10781 10781 10780 10779 10780 10778 10777 10777 10776 10774 10771 10768 10763 10762 10760 10758 10757 10755 10752 10747 10742 10740 10742 10741 10732 10729 10723 10718 10713 10709 10703 10697 10692 10685 10679 10677 10671
10765 10766 10769 10770 10775 10773 10773 10772 10769 10770 10768 10767 10766 10766 10766 10764 10761 10758 10755 10754 10751 10749 10748 10744 10741 10735 10731 10728 10724 10724 10722 10714 10708 10705 10696 10691 10686 10682 10677 10671 10664 10662 10661
10757 10759 10770 10768 10766 10762 10762 10760 10760 10760 10757 10757 10757 10758 10756 10754 10753 10750 10748 10744 10740 10741 10736 10734 10730 10727 10720 10716 10711 10709 10705 10698 10693 10688 10684 10677 10671 10665 10660 10656 10651 10646 10646
10747 10754 10758 10757 10756 10754 10749 10749 10749 10747 10748 10747 10748 10749 10748 10747 10744 10739 10738 10733 10732 10732 10725 10722 10719 10713 10704 10699 10693 10688 10686 10683 10675 10672 10667 10662 10656 10651 10644 10639 10638 10636 10632
10741 10745 10747 10748 10745 10742 10742 10743 10744 10743 10742 10741 10742 10742 10739 10736 10734 10731 10731 10725 10722 10717 10712 10706 10701 10698 10692 10685 10678 10672 10665 10660 10658 10654 10650 10644 10640 10638 10632 10627 10625 10621 10618
10733 10740 10738 10738 10734 10732 10735 10736 10738 10739 10738 10735 10736 10736 10734 10729 10728 10724 10721 10708 10708 10702 10699 10695 10688 10684 10677 10669 10662 10654 10646 10643 10642 10635 10631 10628 10624 10622 10616 10610 10607 10604 10600
10719 10722 10725 10727 10727 10727 10727 10730 10730 10731 10730 10727 10726 10723 10721 10718 10713 10708 10704 10699 10697 10690 10686 10682 10674 10667 10659 10654 10646 10638 10628 10621 10617 10612 10611 10606 10602 10599 10599 10595 10590 10587 10582
10714 10716 10716 10718 10719 10721 10721 10722 10723 10723 10721 10723 10718 10714 10709 10704 10700 10698 10695 10691 10683 10676 10671 10665 10659 10650 10644 10636 10628 10619 10612 10605 10601 10597 10592 10588 10585 10581 10579 10577 10573 10569 10566
10708 10712 10709 10710 10714 10715 10715 10712 10711 10709 10707 10703 10703 10702 10699 10692 10686 10683 10682 10676 10670 10663 10656 10648 10641 10634 10626 10618 10611 10606 10598 10589 10587 10580 10578 10572 10568 10563 10559 10553 10549 10546 10545
10699 10699 10706 10705 10702 10702 10702 10701 10700 10699 10699 10696 10693 10692 10689 10683 10679 10673 10668 10663 10657 10650 10644 10635 10628 10620 10611 10605 10598 10592 10583 10575 10569 10561 10556 10551 10547 10541 10538 10533 10528 10524 10521
10692 10695 10694 10693 10696 10694 10690 10686 10686 10690 10687 10685 10685 10681 10674 10668 10664 10660 10657 10649 10641 10637 10628 10621 10614 10605 10598 10590 10583 10575 10567 10562 10555 10546 10540 10536 10530 10523 10519 10514 10510 10506 10502
10680 10683 10683 10682 10683 10684 10679 10681 10682 10680 10676 10673 10671 10667 10663 10658 10652 10647 10642 10633 10627 10621 10614 10607 10598 10591 10584 10575 10570 10561 10550 10543 10539 10530 10522 10516 10513 10506 10502 10499 10494 10490 10486
10671 10675 10677 10675 10677 10674 10672 10672 10670 10669 10666 10664 10659 10655 10651 10644 10637 10630 10626 10621 10615 10610 10601 10594 10586 10578 10570 10563 10555 10546 10535 10523 10517 10512 10502 10496 10490 10485 10483 10480 10474 10468 10464
10664 10668 10669 10669 10669 10669 10666 10666 10664 10660 10657 10652 10645 10642 10638 10632 10628 10619 10612 10608 10603 10595 10588 10582 10574 10565 10556 10547 10538 10528 10519 10507 10498 10491 10484 10479 10469 10463 10459 10455 10449 10443 10439
10661 10664 10665 10663 10658 10657 10656 10653 10652 10649 10646 10644 10637 10633 10628 10623 10615 10606 10598 10593 10586 10580 10575 10567 10561 10552 10542 10531 10522 10513 10504 10491 10484 10473 10464 10456 10446 10437 10432 10423 10414 10407 10401
10652 10654 10655 10655 10651 10647 10645 10646 10644 10638 10635 10632 10625 10621 10617 10612 10604 10595 10587 10579 10572 10566 10559 10552 10544 10536 10527 10516 10506 10495 10489 10480 10472 10457 10446 10434 10424 10408 10394 10387 10377 10367 10359
10642 10643 10645 10642 10641 10638 10636 10634 10631 10625 10621 10618 10613 10608 10603 10596 10589 10581 10574 10568 10561 10553 10543 10533 10525 10517 10509 10498 10486 10475 10465 10458 10452 10447 10431 10417 10405 10392 10375 10360 10346 10332 10319
10633 10633 10631 10632 10630 10626 10624 10621 10619 10615 10610 10604 10599 10595 10590 10583 10576 10568 10561 10554 10546 10538 10528 10518 10509 10499 10489 10478 10467 10455 10445 10435 10425 10417 10411 10395 10380 10363 10348 10331 10316 10304 10290
10629 10628 10625 10620 10620 10620 10616 10612 10608 10603 10598 10593 10589 10583 10576 10568 10562 10555 10547 10539 10532 10522 10512 10501 10491 10481 10471 10459 10447 10436 10425 10413 10401 10388 10376 10362 10349 10332 10314 10297 10280 10267 10255